Date,TemperatureHighF,TemperatureAvgF,TemperatureLowF,DewpointHighF,DewpointAvgF,DewpointLowF,HumidityHigh,HumidityAvg,HumidityLow,PressureMaxIn,PressureMinIn,WindSpeedMaxMPH,WindSpeedAvgMPH,GustSpeedMaxMPH,PrecipitationSumIn
2013-1-1,20,11,1,14,6,-3,84,79,68,0.00,40.00,7,4,12,0.01
2013-1-2,19,11,-5,10,5,-11,86,78,60,0.00,40.00,5,3,7,0.01
2013-1-3,18,4,-5,6,-2,-11,83,76,55,0.00,40.00,5,2,7,0.01
2013-1-4,24,7,-6,17,1,-11,83,75,57,0.00,40.00,7,3,14,0.01
2013-1-5,27,17,5,19,12,1,89,80,65,0.00,40.00,5,3,7,0.01
2013-1-6,30,20,12,23,15,9,89,82,62,0.00,40.00,8,4,13,0.01
2013-1-7,39,30,19,27,20,15,88,66,57,0.00,40.00,17,8,27,0.01
2013-1-8,39,36,33,30,22,15,71,58,42,0.00,40.00,21,12,30,0.01
2013-1-9,43,40,36,29,26,23,67,57,49,0.00,40.00,25,16,35,0.01
2013-1-10,40,24,9,28,18,3,95,79,50,0.00,40.00,18,12,27,0.05
2013-1-11,9,6,-5,4,-2,-11,79,71,61,0.00,40.00,11,6,16,0.02
2013-1-12,6,-4,-16,0,-11,-22,80,74,66,0.00,40.00,8,4,10,0.02
2013-1-13,9,-4,-13,-2,-11,-19,76,71,60,0.00,40.00,9,3,11,0.01
2013-1-14,12,-1,-14,8,-6,-21,86,76,71,0.00,40.00,8,4,11,0.04
2013-1-15,27,16,7,21,12,4,90,85,76,0.00,40.00,5,3,10,0.05
2013-1-16,32,16,3,19,10,-1,87,76,56,0.00,40.00,6,4,12,0.01
2013-1-17,28,14,3,16,8,-2,86,75,57,0.00,40.00,6,3,11,0.00
2013-1-18,41,28,15,19,13,8,73,54,41,0.00,40.00,18,6,24,0.00
2013-1-19,37,20,9,15,8,0,69,58,38,0.00,40.00,5,4,9,0.00
2013-1-20,32,20,8,19,10,2,80,66,52,0.00,40.00,5,3,10,0.01
2013-1-21,35,20,10,22,11,4,79,68,52,0.00,40.00,5,3,13,0.01
2013-1-22,29,14,4,14,6,-3,79,68,52,0.00,40.00,5,2,7,0.01
2013-1-23,44,22,11,25,12,6,84,69,35,0.00,40.00,11,4,20,0.01
2013-1-24,44,36,20,31,25,17,90,66,35,0.00,40.00,20,8,31,0.01
2013-1-25,41,34,20,32,26,17,89,75,61,0.00,40.00,20,8,31,0.01
2013-1-26,47,36,29,32,29,26,89,77,53,0.00,40.00,19,10,34,0.01
2013-1-27,30,24,15,28,20,12,99,85,67,0.00,40.00,7,4,11,0.03
2013-1-28,32,24,19,17,14,12,82,68,48,0.00,40.00,15,10,21,0.01
2013-1-29,25,20,17,21,14,6,94,78,60,0.00,40.00,14,6,20,0.02
2013-1-30,38,29,18,29,23,14,91,77,51,0.00,40.00,14,6,27,0.01
2013-1-31,38,35,32,31,29,23,91,79,54,0.00,40.00,8,5,16,0.00